Location: Claremont
(33.9858°S, 18.4575°E)
Time: 11:38:34
(UTC+00:00)

Cosmos 2098 - Pass Details

Date: 03 March 2021
Orbit: 388 x 1585 km, 82.9° (Epoch: 21 April)

Event Time Altitude Azimuth Distance (km) Brightness Sun altitude
Rises 18:08:01 0° 180° (S) 2,402 8.3 -10.6°
Reaches altitude 10° 18:10:09 10° 173° (S) 1,475 7.1 -11.0°
Maximum altitude 18:13:07 45° 98° (E) 550 4.4 -11.6°
Drops below altitude 10° 18:16:04 10° 23° (NNE) 1,462 6.6 -12.2°
Enters shadow 18:16:09 10° 22° (NNE) 1,499 6.7 -12.2°
